Regional Weather Roundup
Issued by NWS

Home | Current Version | Previous Version | Text Only | Print | Product List | Glossary Off
Versions: 1 2 3 4 5 6 7 8 9 10 11 12 13 14 15 16 17 18 19 20 21 22 23 24 25 26 27 28 29 30 31 32 33 34 35 36 37 38 39 40 41 42 43 44 45 46 47 48 49 50

000
ASUS43 KTOP 270859
RWRKS

WEATHER ROUNDUP FOR KANSAS
NATIONAL WEATHER SERVICE GOODLAND KS
400 AM CDT THU AUG 27 2015

NOTE:  "FAIR" INDICATES FEW OR NO CLOUDS BELOW 12,000 FEET WITH NO
SIGNIFICANT WEATHER AND/OR OBSTRUCTIONS TO VISIBILITY.

KSZ001>006-013>018-027>032-041>047-271000-
NORTHWEST KANSAS

CITY           SKY/WX    TMP DP  RH WIND       PRES   REMARKS
GOODLAND       MOCLDY    75  52  44 S13       30.02S
HAYS           PTCLDY    72  59  64 SW6       29.99S
HILL CITY      PTCLDY    74  59  59 SW12      29.98S
RUSSELL        PTCLDY    72  66  81 S8        29.97S
$$

KSZ061>065-074>080-084>089-271000-
SOUTHWEST KANSAS

CITY           SKY/WX    TMP DP  RH WIND       PRES   REMARKS
DODGE CITY     PTCLDY    72  59  63 SW13      30.05F
ELKHART          N/A     76  53  44 SW10        N/A
GARDEN CITY    MOCLDY    71  59  65 S10       30.04F
GREAT BEND     PTCLDY    73  64  73 SW10      30.00R
LIBERAL        MOCLDY    70  57  64 S9        30.08F
$$

KSZ066>073-081>083-090>101-271000-
SOUTHEAST KANSAS

CITY           SKY/WX    TMP DP  RH WIND       PRES   REMARKS
CHANUTE        MOCLDY    67  61  81 E8        30.08S
COFFEYVILLE    PTCLDY    67  63  87 CALM      30.06F
HUTCHINSON     PTCLDY    73  68  84 SE7       30.01F
NEWTON         MOCLDY    72  64  78 SE10      30.06S
WICHITA INTL   MOCLDY    73  68  84 SE10      30.02S
WICHITA JABRA  MOCLDY    73  68  84 SE12      30.03S
WINFIELD       MOCLDY    73  67  81 SE7       30.05S
$$

KSZ007>012-019>026-033>040-048>060-102>105-271000-
NORTHEAST KANSAS

CITY           SKY/WX    TMP DP  RH WIND       PRES   REMARKS
CONCORDIA      PTCLDY    71  67  87 SE10      30.00R
EMPORIA        PTCLDY    67  61  81 SE7       30.06S
LAWRENCE       CLOUDY    66  62  87 E5        30.08S
MANHATTAN      PTCLDY    71  63  75 E5        30.03S
OLATHE IND     MOCLDY    65  59  81 SE7       30.10R
OLATHE EXE     PTCLDY    64  58  80 SE7       30.08F
SALINA         PTCLDY    74  69  85 S10       29.99F
TOPEKA BILLARD PTCLDY    68  62  81 SE6       30.07S
TOPEKA FORBES  CLOUDY    69  61  75 SE7       30.07S
$$


USA.gov is the U.S. government's official web portal to all federal, state and local government web resources and services.